Location: 476 Grange Obs.
(45.1420°N, 7.1420°E)
Time: 11:04:15
(UTC+02:00)

ISS - Visible Passes

Search period start: 15 May 2021 00:00
Search period end: 25 May 2021 00:00
Orbit: 417 x 422 km, 51.6° (Epoch: 15 May)

Date Brightness Start Highest point End Pass type
(mag) Time Alt. Az. Time Alt. Az. Time Alt. Az.
15 May -2.1 00:26:54 10° W 00:30:02 35° NNW 00:33:11 10° NE visible
15 May -1.5 02:04:31 10° NW 02:07:27 26° N 02:10:22 10° ENE visible
15 May -3.1 03:41:24 10° NW 03:44:43 55° NNE 03:48:03 10° ESE visible
15 May -2.7 05:18:30 10° W 05:21:22 26° SW 05:24:13 10° SSE visible
15 May -3.2 22:02:38 10° SSW 22:05:43 35° SE 22:08:49 10° ENE visible
15 May -2.6 23:39:14 10° W 23:42:29 45° NNW 23:45:45 10° NE visible
16 May -1.5 01:16:55 10° WNW 01:19:49 26° N 01:22:44 10° ENE visible
16 May -2.5 02:53:58 10° NW 02:57:12 41° NNE 03:00:26 10° E visible
16 May -3.4 04:30:50 10° WNW 04:34:02 41° SW 04:37:13 10° SSE visible
16 May -3.3 22:51:38 10° WSW 22:54:58 63° NNW 22:58:19 10° ENE visible
17 May -1.6 00:29:17 10° WNW 00:32:12 27° N 00:35:09 10° NE visible
17 May -2.0 02:06:32 10° NW 02:09:38 33° NNE 02:12:45 10° E visible
17 May -3.9 03:43:17 10° WNW 03:46:38 66° SSW 03:49:59 10° SE visible
17 May -3.8 22:04:08 10° WSW 22:07:29 88° SSE 22:10:52 10° ENE visible
17 May -1.7 23:41:35 10° WNW 23:44:36 30° N 23:47:37 10° NE visible
18 May -1.7 01:19:03 10° NW 01:22:02 28° N 01:22:53 25° NE visible
18 May -2.1 22:53:52 10° W 22:57:00 35° NNW 23:00:09 10° NE visible
19 May -1.6 00:31:30 10° NW 00:34:25 26° N 00:36:27 15° NE visible
19 May -1.3 02:08:22 10° NW 02:09:22 18° NW 02:09:22 18° NW visible
19 May -2.5 22:06:12 10° W 22:09:26 45° NNW 22:12:42 10° NE visible
19 May -1.5 23:43:54 10° WNW 23:46:47 26° N 23:49:41 10° ENE visible
20 May -2.0 01:20:56 10° NW 01:23:11 32° NNW 01:23:11 32° NNW visible
20 May -1.6 22:56:14 10° WNW 22:59:09 27° N 23:02:05 10° NE visible
21 May -2.1 00:33:28 10° NW 00:36:34 33° NNE 00:37:05 31° NE visible
21 May -1.7 22:08:31 10° WNW 22:11:31 30° N 22:14:33 10° NE visible
21 May -1.8 23:45:58 10° NW 23:48:58 28° N 23:51:02 16° ENE visible
22 May -1.5 01:22:44 10° WNW 01:23:58 21° WNW 01:23:58 21° WNW visible
22 May -1.6 22:58:25 10° NW 23:01:20 26° N 23:04:15 10° ENE visible
23 May -2.7 00:35:17 10° NW 00:37:57 45° NNW 00:37:57 45° NNW visible
23 May -1.6 22:10:48 10° WNW 22:13:41 26° N 22:16:34 10° ENE visible
23 May -2.6 23:47:49 10° NW 23:51:03 41° NNE 23:51:57 33° ENE visible
24 May -0.9 01:24:41 10° WNW 01:24:53 11° WNW 01:24:53 11° WNW visible
24 May -2.2 23:00:21 10° NW 23:03:27 33° NNE 23:05:58 14° ENE visible
